This is the latest recevied weather packets stored in our database for station/object N3WXO-1. If no packets are shown the sender has not sent any weather packets the latest 1 day(s).
| Time | Temp. | Humidity | Pressure | Rain* | Wind** | Luminosity | Snow |
|---|---|---|---|---|---|---|---|
| 1778082924 | 16.11° C | 94% | 1008 hPa | 2.29 mm | - | 42 W/m² | - |
| 1778081730 | 16.11° C | 94% | 1008.1 hPa | 2.29 mm | - | 26 W/m² | - |
| 1778081422 | 16.11° C | 94% | 1008.1 hPa | 2.29 mm | - | 28 W/m² | - |
| 1778080817 | 16.11° C | 93% | 1008.7 hPa | 1.52 mm | - | 16 W/m² | - |
| 1778079925 | 16.11° C | 94% | 1008.5 hPa | 1.52 mm | - | 23 W/m² | - |
| 1778079633 | 16.11° C | 94% | 1008.4 hPa | 1.52 mm | - | 35 W/m² | - |
| 1778076916 | 16.11° C | 93% | 1008.7 hPa | 1.52 mm | - | 56 W/m² | - |
| 1778075426 | 16.11° C | 91% | 1008.7 hPa | 1.27 mm | - | 49 W/m² | - |
| 1778074823 | 16.67° C | 91% | 1008.7 hPa | 1.02 mm | - | 49 W/m² | - |
| 1778073032 | 16.67° C | 87% | 1008.9 hPa | 0.51 mm | - | 32 W/m² | - |
| 1778072423 | 17.22° C | 87% | 1009 hPa | 0.25 mm | - | 33 W/m² | - |
| 1778071521 | 17.22° C | 85% | 1008.9 hPa | 0.25 mm | - | 30 W/m² | - |
| 1778070626 | 17.78° C | 84% | 1008.8 hPa | 0 mm | - | 42 W/m² | - |
| 1778070319 | 17.78° C | 83% | 1008.8 hPa | 0 mm | - | 51 W/m² | - |
| 1778070026 | 17.78° C | 84% | 1008.8 hPa | 0 mm | - | 40 W/m² | - |
| 1778068817 | 17.22° C | 84% | 1008.7 hPa | 0 mm | - | 28 W/m² | - |
| 1778068534 | 17.22° C | 84% | 1008.7 hPa | 0 mm | - | 33 W/m² | - |
| 1778068226 | 17.22° C | 83% | 1008.7 hPa | 0 mm | - | 42 W/m² | - |
| 1778067622 | 17.78° C | 82% | 1008.8 hPa | 0 mm | - | 23 W/m² | - |
| 1778066425 | 17.22° C | 80% | 1008.8 hPa | 0 mm | - | 23 W/m² | - |
| 1778063737 | 16.11° C | 81% | 1008.1 hPa | 0 mm | - | 23 W/m² | - |
| 1778063424 | 16.11° C | 81% | 1008.1 hPa | 0 mm | - | 19 W/m² | - |
| 1778062525 | 16.11° C | 80% | 1007.9 hPa | 0 mm | - | 11 W/m² | - |
| 1778061626 | 16.11° C | 79% | 1008 hPa | 0 mm | - | 0 W/m² | - |
| 1778061314 | 16.11° C | 79% | 1008 hPa | 0 mm | - | 0 W/m² | - |
* Rain latest hour (hover to see other rain measurements)
** Current wind speed in m/s (hover to see current wind gust speed)